Flag for U.S.A. Weather past 2 weeks in Compton, California, U.S.A.

Now
64 °F

Sunny.


Feels Like: 64 °F
Forecast: 55 / 66 °F
Wind: 9 mph from West

Location: Hawthorne Municipal Airport

Current Time: Apr 21, 2015 at 7:13:16 PM

Latest Report: Apr 21, 2015 at 5:53 PM


Visibility: 10 mi

Pressure: 29.88 "Hg

Humidity: 56%

Dew point: 48 °F

Location of ComptonLocation

Historic Weather in Compton — Graph

°F

Compton temperature yesterday

Maximum temperature yesterday: 66 °F (at 1:53 PM)
Minimum temperature yesterday: 58 °F (at 1:53 AM)
Average temperature yesterday: 62 °F

Past Weeks' High & Low Weather Summary

 TemperatureHumidityPressure
High81 °F (Apr 16, 1:53 PM)87% (Apr 19, 1:53 AM)30.10 "Hg (Apr 19, 1:53 AM)
Low51 °F (Apr 8, 4:53 AM)7% (Apr 16, 11:53 AM)29.84 "Hg (Apr 20, 5:53 PM)
Average64 °F58%29.97 "Hg
* Reported Apr 6 5:53 PM — Apr 21 5:53 PM, Compton, Weather by CustomWeather, © 2015

Note: Actual official high and low records may vary slightly from our data, if they occured in-between our weather recording intervals... More about our weather records

Advertising

Compton weather history for previous 24 hours

 ConditionsComfort  
Time TempWeatherWind HumidityBarometerVisibility
5:53 PM
Tue, Apr 21
64 °FSunny.9 mph56%29.88 "Hg10 mi
4:53 PM65 °FPassing clouds.9 mph54%29.88 "Hg10 mi
3:53 PM65 °FPassing clouds.9 mph51%29.90 "Hg10 mi
2:53 PM65 °FPartly sunny.8 mph52%29.92 "Hg10 mi
1:53 PM66 °FOvercast.10 mph47%29.94 "Hg10 mi
12:53 PM67 °FOvercast.10 mph45%29.94 "Hg10 mi
11:53 AM65 °FOvercast.3 mph49%29.95 "Hg10 mi
10:53 AM64 °FOvercast.7 mph52%29.96 "Hg10 mi
9:53 AM62 °FOvercast.5 mph56%29.95 "Hg10 mi
8:53 AM62 °FOvercast.5 mph58%29.95 "Hg10 mi
7:53 AM61 °FOvercast.5 mph60%29.94 "Hg10 mi
6:53 AM61 °FOvercast.5 mph58%29.92 "Hg10 mi
5:53 AM61 °FOvercast.3 mph58%29.90 "Hg10 mi
4:53 AM61 °FOvercast.5 mph58%29.89 "Hg10 mi
3:53 AM61 °FOvercast.No wind58%29.89 "Hg10 mi
2:53 AM60 °FOvercast.3 mph62%29.90 "Hg10 mi
1:53 AM60 °FOvercast.3 mph67%29.90 "Hg10 mi
12:53 AM60 °FOvercast.No wind69%29.91 "Hg10 mi
11:53 PM
Mon, Apr 20
60 °FOvercast.3 mph69%29.91 "Hg10 mi
10:53 PM60 °FClear.5 mph72%29.91 "Hg10 mi
9:53 PM60 °FClear.6 mph72%29.90 "Hg10 mi
8:53 PM60 °FClear.5 mph72%29.89 "Hg10 mi
7:53 PM61 °FSunny.7 mph70%29.87 "Hg10 mi
Weather by CustomWeather, © 2015

See weather overviewHow to use our weather pages